EW5295 Weather Reports


time (UTC)temp
F
wind
direction
speed
knots
gust
knots
rain 1hr
in
rain 24hr
in
rain mn
in
humidity
%
barometer
mb
20260906084524 57 150 0.0 0.9 0.00 0.01 0.00 87 1014.2
20260906083023 57 120 0.0 0.0 0.00 0.01 0.00 87 1014.2
20260906081523 57 120 0.0 0.0 0.00 0.01 0.00 86 1014.2
20260906080024 57 120 0.0 0.0 0.00 0.01 0.00 86 1014.2
20260906074520 57 129 0.0 0.0 0.00 0.01 0.00 86 1014.3
20260906073007 57 129 0.0 0.0 0.00 0.01 0.00 86 1014.4
20260906071510 57 129 0.0 0.0 0.00 0.01 0.00 86 1014.4
20260906070006 57 129 0.0 0.0 0.00 0.01 0.00 87 1014.4
20260906064506 57 129 0.0 0.0 0.00 0.01 0.00 87 1014.5
20260906063005 57 129 0.0 0.0 0.00 0.01 0.00 86 1014.5
20260906061504 57 129 0.0 0.0 0.00 0.01 0.00 87 1014.4
20260906060004 57 129 0.0 0.0 0.00 0.01 0.00 86 1014.6
20260906054501 57 129 0.0 0.0 0.00 0.01 0.00 85 1014.6
20260906053101 57 129 0.0 0.9 0.00 0.01 0.00 85 1014.6
20260906051546 58 142 0.0 0.0 0.00 0.01 0.00 84 1014.7
20260906050044 58 167 0.0 0.0 0.00 0.01 0.00 83 1014.7
20260906044542 59 141 0.0 0.9 0.00 0.01 0.00 81 1014.8
20260906043040 59 136 0.0 0.0 0.00 0.01 0.00 79 1014.9
20260906041538 60 136 0.0 0.0 0.00 0.01 0.00 77 1015.0
20260906040037 60 123 0.0 0.0 0.00 0.01 0.00 75 1015.0
20260906034551 61 123 0.0 0.0 0.00 0.01 0.00 73 1014.9
20260906033035 61 123 0.0 0.0 0.00 0.01 0.00 73 1014.7
20260906031621 61 123 0.0 0.0 0.00 0.01 0.00 72 1014.6
20260906030018 61 156 0.0 0.0 0.00 0.01 0.00 73 1014.5
20260906024517 62 156 0.0 0.0 0.00 0.01 0.00 72 1014.6
20260906023015 62 156 0.0 0.0 0.00 0.01 0.00 70 1014.5
20260906021512 63 156 0.0 0.0 0.00 0.02 0.00 68 1014.6
20260906020009 64 156 0.0 0.0 0.00 0.02 0.00 65 1014.6
20260906014507 65 156 0.0 0.0 0.00 0.02 0.00 64 1014.7
20260906013002 66 156 0.0 0.0 0.00 0.02 0.00 63 1014.8
20260906011552 67 156 0.0 0.0 0.00 0.04 0.00 58 1014.7
20260906010123 67 156 0.0 0.0 0.00 0.04 0.00 62 1014.6
20260906004608 68 156 0.0 0.0 0.00 0.04 0.00 60 1014.7
20260906003049 68 156 0.0 0.0 0.00 0.04 0.00 58 1014.8
20260906001600 69 158 0.0 0.9 0.00 0.11 0.00 55 1014.8
20260906000047 69 290 0.0 0.9 0.00 0.11 0.00 58 1014.7
20260905234545 68 300 0.0 0.9 0.00 0.11 0.00 59 1014.7
20260905233044 67 127 0.0 0.9 0.00 0.11 0.00 57 1014.8
20260905231531 67 127 0.0 0.9 0.00 0.14 0.00 59 1014.9
20260905230034 67 172 0.0 1.7 0.00 0.14 0.00 61 1015.0
20260905224530 68 151 0.0 0.9 0.00 0.14 0.00 63 1015.1
20260905223041 69 156 0.0 0.9 0.00 0.14 0.00 58 1015.2
20260905221524 69 160 0.0 0.0 0.00 0.14 0.00 61 1015.3
20260905220019 67 145 0.0 0.9 0.00 0.14 0.00 62 1015.4
20260905214516 67 302 0.0 0.9 0.00 0.14 0.00 64 1015.5
20260905213014 66 155 0.0 0.0 0.00 0.14 0.00 68 1015.6
20260905211609 66 148 0.0 0.0 0.00 0.14 0.14 67 1015.7
20260905210117 66 148 0.0 0.0 0.00 0.14 0.14 67 1015.8
20260905204600 66 151 0.0 1.7 0.00 0.14 0.14 65 1015.9
20260905203055 65 121 0.0 0.0 0.00 0.14 0.14 71 1016.0
20260905201553 64 122 0.0 0.9 0.00 0.14 0.14 72 1016.0
20260905200114 64 120 0.0 0.9 0.00 0.14 0.14 72 1016.0
20260905194553 63 95 0.0 0.9 0.00 0.14 0.14 74 1016.1
20260905193052 63 158 0.0 2.6 0.00 0.14 0.14 72 1016.1
20260905191541 62 137 0.0 0.9 0.00 0.14 0.14 74 1016.2
20260905190040 62 131 0.0 0.0 0.00 0.14 0.14 77 1016.3
20260905184548 61 281 0.0 0.0 0.00 0.14 0.14 80 1016.5
20260905183043 61 281 0.0 0.0 0.00 0.14 0.14 79 1016.6
20260905181637 61 283 0.0 0.9 0.00 0.14 0.14 83 1016.6
20260905180041 60 289 0.0 0.0 0.00 0.14 0.14 83 1016.7
20260905174537 60 261 0.0 0.9 0.00 0.14 0.14 85 1016.7
20260905173043 59 161 0.0 0.0 0.00 0.14 0.14 91 1016.7
20260905171517 58 153 0.0 0.0 0.00 0.15 0.14 92 1016.7
20260905170018 57 158 0.0 0.0 0.00 0.15 0.14 94 1016.8
20260905164505 56 158 0.0 0.0 0.00 0.15 0.14 95 1016.8
20260905163004 55 158 0.0 0.0 0.00 0.15 0.14 96 1016.8
20260905161504 55 136 0.0 0.9 0.00 0.15 0.14 96 1016.8
20260905160004 55 133 0.0 0.0 0.00 0.15 0.14 97 1016.7
20260905154501 55 269 0.0 0.0 0.00 0.15 0.14 97 1016.7
20260905153001 55 269 0.0 0.0 0.00 0.15 0.14 97 1016.7
20260905151628 54 270 0.0 0.0 0.00 0.15 0.14 97 1016.6
20260905150057 0 0.0 0.0 0.00 0.15 0.14 1016.6
20260905144545 0 0.0 0.0 0.00 0.15 0.14 1016.6
20260905143037 0 0.0 0.0 0.00 0.15 0.14 1016.6
20260905141532 0 0.0 0.0 0.00 0.15 0.14 1016.5
20260905140027 0 0.0 0.0 0.00 0.15 0.14 1016.4
20260905134532 0 0.0 0.0 0.00 0.15 0.14 1016.4
20260905133019 0 0.0 0.0 0.00 0.15 0.14 1016.3
20260905131515 0 0.0 0.0 0.00 0.15 0.14 1016.4
20260905130011 0 0.0 0.0 0.00 0.15 0.14 1016.2
20260905124556 0 0.0 0.0 0.00 0.15 0.14 1016.1
20260905123107 0 0.0 0.0 0.00 0.15 0.14 1016.0
20260905121549 52 285 0.0 0.0 0.00 0.16 0.14 96 1015.9
20260905120048 52 285 0.0 0.0 0.00 0.16 0.14 96 1015.9
20260905114549 52 285 0.0 0.0 0.00 0.16 0.14 96 1015.9
20260905113046 52 285 0.0 0.0 0.00 0.16 0.14 96 1015.9
20260905111554 52 285 0.0 0.0 0.00 0.19 0.14 96 1015.8
20260905110046 53 285 0.0 0.0 0.00 0.19 0.14 96 1015.8
20260905104533 53 285 0.0 0.0 0.00 0.19 0.14 96 1015.8
20260905103042 53 285 0.0 0.0 0.00 0.19 0.14 96 1016.0
20260905101533 53 285 0.0 0.0 0.01 0.19 0.14 96 1016.0
20260905100045 54 285 0.0 0.0 0.01 0.19 0.14 96 1016.0
20260905094532 54 285 0.0 0.0 0.01 0.19 0.14 96 1016.0
20260905093031 54 285 0.0 0.0 0.01 0.19 0.14 96 1016.0
20260905091536 54 285 0.0 0.0 0.00 0.18 0.13 96 1015.9
20260905090028 53 285 0.0 0.0 0.00 0.18 0.13 96 1015.9